Regional Weather Roundup
Issued by NWS

Home | Current Version | Previous Version | Graphics & Text | Print | Product List | Glossary Off
Versions: 1 2 3 4 5 6 7 8 9 10 11 12 13 14 15 16 17 18 19 20 21 22 23 24 25 26 27 28 29 30 31 32 33 34 35 36 37 38 39 40 41 42 43 44 45 46 47 48 49 50

437
ASUS45 KBOU 220707
RWRCO

WEATHER ROUNDUP FOR COLORADO
NATIONAL WEATHER SERVICE DENVER/BOULDER CO
100 AM MDT FRI SEP 22 2017

NOTE: "FAIR" INDICATES FEW OR NO CLOUDS BELOW 12000 FEET WITH NO
SIGNIFICANT WEATHER AND/OR OBSTRUCTIONS TO VISIBILITY.

COZ001>005-013-030-031-220800-
...NORTHWEST COLORADO...

CITY           SKY/WX    TMP DP  RH WIND       PRES   REMARKS
CRAIG          FAIR      50  29  44 VRB3      29.77S
HAYDEN         FAIR      54  23  30 W3        29.82S
MEEKER         FAIR      64  19  17 SW6       29.78S
RABBIT EARS PA FAIR      46  19  34 SW10G21   30.06F
STEAMBOAT SPGS FAIR      48  29  47 CALM      29.83S
WALDEN         FAIR      39  23  52 SE8       29.92S
$$

COZ006>008-011-220800-
...WEST CENTRAL VALLEYS...

CITY           SKY/WX    TMP DP  RH WIND       PRES   REMARKS
GRAND JUNCTION FAIR      74  24  15 SE9G31    29.72S
MONTROSE       FAIR      67  23  19 SE3       29.83S
EAGLE          FAIR      48  26  42 E12       29.85S
RIFLE          FAIR      73  17  12 SW12G24   29.76S
DELTA          FAIR      71  20  14 S9G20     29.80R
NUCLA          FAIR      68  23  18 SW21G29   29.88R
$$

COZ017>023-064>068-220800-
...SOUTHWEST COLORADO...

CITY           SKY/WX    TMP DP  RH WIND       PRES   REMARKS
DURANGO        FAIR      57  32  38 W5        29.99R
CORTEZ         FAIR      65  32  29 S18       29.91R
PAGOSA SPRINGS FAIR      51  26  38 CALM      30.05S
TELLURIDE      FAIR      56  25  29 S10G28    30.07R
WOLF CREEK PAS CLOUDY    41  28  60 S18G32    30.30S
$$

COZ009-010-012-014-032>034-037-058>063-220800-
...CENTRAL COLORADO...

CITY           SKY/WX    TMP DP  RH WIND       PRES   REMARKS
ASPEN          FAIR      49  27  42 SE7       29.91S
BUENA VISTA    FAIR      61  20  21 S8        29.95S
COPPER MTN     FAIR      50  12  22 S25G36    30.17F
BERTHOUD PASS  FAIR      37  32  81 SW13G21   30.19F
COTTONWOOD PAS FAIR      61  19  20 S12G18    30.08S
GUNNISON       FAIR      47  25  42 N13       29.97F
KREMMLING      FAIR      45  27  49 CALM      29.90S
LEADVILLE      FAIR      53  15  22 S16G29    30.05F
MONARCH PASS   FAIR      43  23  45 SW47G59   30.30F
SALIDA         FAIR      64  22  20 S12G21    30.01F
SUNLIGHT       FAIR      43  16  33 S7G31     30.10S
WILKERSON PASS FAIR      46  18  31 S16G33    30.15F
$$

COZ069>075-220800-
...SAN LUIS VALLEY/SANGRE DE CRISTO MOUNTAINS...

CITY           SKY/WX    TMP DP  RH WIND       PRES   REMARKS
ALAMOSA        FAIR      47  29  49 S10       30.00S
DEL NORTE      FAIR      56  28  34 SW3       30.03F
LA VETA PASS   FAIR      52  27  37 S32G48    30.20F
SAGUACHE       FAIR      43  27  52 N5        30.02S
$$

COZ035-036-038>040-220800-
...NORTHERN COLORADO FRONT RANGE...

CITY           SKY/WX    TMP DP  RH WIND       PRES   REMARKS
DENVER INTL AP FAIR      68  20  16 S16       29.73R
DMNS CITY PARK   N/A     70  21  16 SE8       29.73R
AURORA         CLEAR     66  22  18 SE13      29.76R
FRONT RANGE AP FAIR      66  23  19 SE12      29.76R
ERIE MUNI ARPT FAIR      67  22  18 W7        29.74R
BOULDER MUN AP FAIR      68  27  21 SW5       29.70R
CENTENNIAL     FAIR      69  21  16 S14       29.77R
BROOMFIELD     FAIR      70  23  17 S10       29.74R
FORT COLLINS   FAIR      59  33  37 E12       29.69R
LONGMONT       FAIR      65  28  25 CALM      29.70R
$$

COZ041-046-047-076>085-087-088-220800-
...PIKES PEAK/PALMER DIVIDE AND SOUTHERN FOOTHILLS...

CITY           SKY/WX    TMP DP  RH WIND       PRES   REMARKS
COLO. SPRINGS  FAIR      65  25  22 S14       29.84S
A. F. ACADEMY  FAIR      61  21  21 SE6       29.84S
SCHRIEVER AFB  FAIR      62  23  22 S12       29.84S
CHEYENNE MTN   FAIR      69  19  15 S14G24    29.82S
ELLICOTT         N/A    N/A N/A N/A S14       29.82F
FALCON         FAIR      59  21  22 S9        29.89S
FORT CARSON    FAIR      62  25  24 SW8       29.80S
LIMON          FAIR      55  23  28 CALM      29.78S
MONUMENT HILL  FAIR      59  23  25 S15       29.88S
CANON CITY     CLEAR     63  28  27 W9        29.78S
WALSENBURG     FAIR      63  30  29 S6        29.86S
TRINIDAD       FAIR      70  36  28 S20       29.85F
$$

COZ042>045-048>051-090-091-220800-
...NORTHEAST COLORADO...

CITY           SKY/WX    TMP DP  RH WIND       PRES   REMARKS
GREELEY ARPT   FAIR      55  37  50 W7        29.68R
AKRON          FAIR      63  23  21 S13       29.68F
BURLINGTON     FAIR      68  39  34 S15       29.73S
WRAY           FAIR      70  32  24 S14G21    29.67S
YUMA           FAIR      52  34  50 S8        29.68S
STERLING       FAIR      54  34  47 SW9       29.62S
HOLYOKE        FAIR      61  36  39 S8        29.66R
FORT MORGAN    FAIR      56  25  30 SW6       29.66S
$$

COZ086-089-092>099-220800-
...SOUTHEAST COLORADO...

CITY           SKY/WX    TMP DP  RH WIND       PRES   REMARKS
PUEBLO         FAIR      72  28  19 S8        29.73F
LA JUNTA       FAIR      70  29  21 SW8       29.74S
LAMAR          FAIR      69  37  30 S13       29.71S
SPRINGFIELD      N/A     63  49  60 S17       29.83S
$$




USA.gov is the U.S. government's official web portal to all federal, state and local government web resources and services.